FW1396 Weather Reports


time (UTC)temp
C
wind
direction
speed
KPH
gust
KPH
rain 1hr
cm
rain 24hr
cm
rain mn
cm
humidity
%
barometer
mb
20260510164739 22 76 3.2 4.8 0.00 0.00 0.00 61 1001.1
20260510164239 22 30 6.4 14.5 0.00 0.00 0.00 61 1001.2
20260510163738 22 30 6.4 14.5 0.00 0.00 0.00 61 1001.2
20260510163508 22 55 8.0 14.5 0.00 0.00 0.00 60 1001.1
20260510162737 22 104 8.0 14.5 0.00 0.00 0.00 61 1001.3
20260510162237 22 55 3.2 17.7 0.00 0.00 0.00 61 1001.3
20260510161736 22 73 8.0 17.7 0.00 0.00 0.00 61 1001.3
20260510161238 22 90 6.4 9.7 0.00 0.00 0.00 63 1001.4
20260510161008 21 92 4.8 8.0 0.00 0.00 0.00 63 1001.5
20260510160237 21 103 4.8 9.7 0.00 0.00 0.00 64 1001.5
20260510160009 21 79 4.8 9.7 0.00 0.00 0.00 64 1001.5
20260510155236 21 164 4.8 16.1 0.00 0.00 0.00 64 1001.4
20260510154736 21 111 9.7 16.1 0.00 0.00 0.00 63 1001.4
20260510154236 21 80 8.0 9.7 0.00 0.00 0.00 65 1001.3
20260510153737 21 131 4.8 9.7 0.00 0.00 0.00 66 1001.2
20260510153234 21 137 6.4 11.3 0.00 0.00 0.00 66 1001.2
20260510152736 20 42 6.4 16.1 0.00 0.00 0.00 66 1001.2
20260510152236 20 100 8.0 16.1 0.00 0.00 0.00 65 1001.2
20260510151735 21 94 3.2 6.4 0.00 0.00 0.00 67 1001.2
20260510151235 21 94 3.2 8.0 0.00 0.00 0.00 67 1001.1
20260510150735 21 4 4.8 9.7 0.00 0.00 0.00 67 1000.9
20260510150234 20 31 4.8 14.5 0.00 0.00 0.00 68 1000.9
20260510150006 20 76 6.4 14.5 0.00 0.00 0.00 69 1000.8
20260510145239 20 82 6.4 9.7 0.00 0.00 0.00 71 1000.8
20260510144733 20 82 6.4 9.7 0.00 0.00 0.00 71 1000.7
20260510144237 20 90 8.0 9.7 0.00 0.00 0.00 77 1000.7
20260510144003 19 80 8.0 11.3 0.00 0.00 0.00 77 1000.7
20260510142730 18 85 3.2 9.7 0.00 0.00 0.00 80 1000.5
20260510142232 18 45 3.2 9.7 0.00 0.00 0.00 84 1000.4
20260510141730 17 220 1.6 4.8 0.00 0.00 0.00 88 1000.3
20260510141230 17 220 4.8 4.8 0.00 0.00 0.00 88 1000.3
20260510140730 16 220 1.6 6.4 0.00 0.00 0.00 88 1000.2
20260510140231 16 220 3.2 6.4 0.00 0.00 0.00 89 1000.1
20260510135730 16 275 0.0 3.2 0.00 0.00 0.00 92 1000.0
20260510135230 15 303 0.0 1.6 0.00 0.00 0.00 92 999.9
20260510134731 15 303 0.0 1.6 0.00 0.00 0.00 94 999.8
20260510134231 15 303 0.0 1.6 0.00 0.00 0.00 94 999.9
20260510133730 14 303 0.0 3.2 0.00 0.00 0.00 94 999.9
20260510133231 14 303 0.0 3.2 0.00 0.00 0.00 94 999.9
20260510132729 14 303 3.2 3.2 0.00 0.00 0.00 95 999.8
20260510132500 13 303 0.0 3.2 0.00 0.00 0.00 95 999.8
20260510131731 13 303 1.6 3.2 0.00 0.00 0.00 95 999.7
20260510131500 13 259 0.0 1.6 0.00 0.00 0.00 95 999.7
20260510130729 13 259 0.0 1.6 0.00 0.00 0.00 95 999.5
20260510130228 13 259 0.0 3.2 0.00 0.00 0.00 95 999.4
20260510125729 13 259 1.6 3.2 0.00 0.00 0.00 95 999.4
20260510125229 13 259 0.0 3.2 0.00 0.00 0.00 95 999.5
20260510124734 13 259 1.6 3.2 0.00 0.00 0.00 95 999.5
20260510124228 12 233 0.0 1.6 0.00 0.00 0.00 95 999.4
20260510123959 12 231 0.0 1.6 0.00 0.00 0.00 95 999.4
20260510123227 12 231 0.0 1.6 0.00 0.00 0.00 95 999.3
20260510122727 12 231 1.6 1.6 0.00 0.00 0.00 95 999.1
20260510122227 12 228 0.0 1.6 0.00 0.00 0.00 95 999.0
20260510121725 12 90 0.0 0.0 0.00 0.00 0.00 95 999.0
20260510121226 12 90 0.0 1.6 0.00 0.00 0.00 95 998.9
20260510120956 12 90 0.0 1.6 0.00 0.00 0.00 95 999.0
20260510120225 12 90 0.0 1.6 0.00 0.00 0.00 95 999.0
20260510115725 12 90 0.0 1.6 0.00 0.00 0.00 95 998.9
20260510115225 12 90 0.0 1.6 0.00 0.00 0.00 95 998.8
20260510114727 12 90 0.0 1.6 0.00 0.00 0.00 95 998.7
20260510114225 12 90 0.0 1.6 0.00 0.00 0.00 95 998.6
20260510113723 11 124 0.0 0.0 0.00 0.00 0.00 94 998.6
20260510113224 11 124 0.0 3.2 0.00 0.03 0.00 94 998.3
20260510112953 11 34 0.0 3.2 0.00 0.03 0.00 94 998.1
20260510112222 11 34 1.6 3.2 0.00 0.03 0.00 94 998.1
20260510111722 11 34 0.0 1.6 0.00 0.03 0.00 94 997.9
20260510111222 11 34 0.0 1.6 0.00 0.03 0.00 94 998.0
20260510110724 11 34 0.0 0.0 0.00 0.03 0.00 94 997.8
20260510110223 11 34 0.0 0.0 0.00 0.03 0.00 94 997.9
20260510105723 11 87 0.0 1.6 0.00 0.03 0.00 94 997.9
20260510105224 11 86 0.0 1.6 0.00 0.03 0.00 94 997.8
20260510104724 11 86 0.0 0.0 0.00 0.03 0.00 94 997.9
20260510104221 11 86 0.0 0.0 0.00 0.03 0.00 94 997.8
20260510103720 11 86 0.0 0.0 0.00 0.03 0.00 94 997.7
20260510103221 11 86 0.0 0.0 0.00 0.03 0.00 94 997.6
20260510102721 11 86 0.0 0.0 0.00 0.03 0.00 94 997.5
20260510102220 11 86 0.0 0.0 0.00 0.03 0.00 93 997.4
20260510101720 11 86 0.0 0.0 0.00 0.03 0.00 93 997.3
20260510101220 11 86 0.0 0.0 0.00 0.03 0.00 93 997.3
20260510100719 11 86 0.0 0.0 0.00 0.03 0.00 93 997.2
20260510100220 11 86 0.0 0.0 0.00 0.03 0.00 93 997.2
20260510095952 11 86 0.0 0.0 0.00 0.03 0.00 93 997.2
20260510095218 11 86 0.0 0.0 0.00 0.03 0.00 93 997.1
20260510094718 11 86 0.0 0.0 0.00 0.03 0.00 93 997.2
20260510094218 11 86 0.0 0.0 0.00 0.03 0.00 93 997.1
20260510093718 11 86 0.0 0.0 0.00 0.03 0.00 93 997.0
20260510093449 11 86 0.0 1.6 0.00 0.03 0.00 93 997.1
20260510092717 11 86 0.0 1.6 0.00 0.03 0.00 93 997.1
20260510092217 11 86 0.0 1.6 0.00 0.03 0.00 93 997.2
20260510091716 11 86 0.0 3.2 0.00 0.03 0.00 93 997.2
20260510091216 11 86 0.0 3.2 0.00 0.03 0.00 93 997.3
20260510090717 11 86 0.0 0.0 0.00 0.03 0.00 93 997.3
20260510090217 11 86 0.0 0.0 0.00 0.03 0.00 93 997.4
20260510085716 11 86 0.0 0.0 0.00 0.03 0.00 93 997.5
20260510085217 11 86 0.0 0.0 0.00 0.03 0.00 93 997.5
20260510084717 11 86 0.0 0.0 0.00 0.03 0.00 93 997.6
20260510083947 11 86 0.0 0.0 0.00 0.03 0.00 93 997.4
20260510083215 11 86 0.0 1.6 0.00 0.03 0.00 93 997.3
20260510082717 12 86 0.0 1.6 0.00 0.03 0.00 93 997.1
20260510082216 12 86 0.0 3.2 0.00 0.03 0.00 93 997.1
20260510081717 12 86 0.0 3.2 0.00 0.03 0.00 92 996.9
20260510081446 12 86 1.6 3.2 0.00 0.03 0.00 92 996.7
20260510080715 12 86 0.0 3.2 0.00 0.03 0.00 92 996.8
20260510080216 12 86 0.0 3.2 0.00 0.03 0.00 92 996.7
20260510075716 12 86 0.0 0.0 0.00 0.03 0.00 92 996.7
20260510075446 12 86 0.0 1.6 0.00 0.03 0.00 92 996.8
20260510073714 12 86 0.0 3.2 0.00 0.03 0.00 92 996.6
20260510073214 12 86 0.0 0.0 0.00 0.03 0.00 92 996.7
20260510072713 12 86 0.0 0.0 0.00 0.03 0.00 92 996.6
20260510072213 12 86 0.0 0.0 0.00 0.03 0.00 92 996.4
20260510071712 12 86 0.0 0.0 0.00 0.03 0.00 92 996.3
20260510071441 12 86 0.0 0.0 0.00 0.03 0.00 92 996.2
20260510070711 12 86 0.0 0.0 0.00 0.03 0.00 92 996.2
20260510070212 12 86 0.0 0.0 0.00 0.03 0.00 91 996.3
20260510065944 12 86 0.0 0.0 0.00 0.03 0.00 91 996.2
20260510065211 12 86 0.0 0.0 0.00 0.03 0.00 91 996.3
20260510064709 12 86 0.0 0.0 0.00 0.03 0.00 91 996.4
20260510064210 12 86 0.0 0.0 0.00 0.03 0.00 91 996.4
20260510063712 12 86 0.0 0.0 0.00 0.03 0.00 91 996.5
20260510063211 12 86 0.0 0.0 0.00 0.03 0.00 91 996.4
20260510062941 12 86 0.0 0.0 0.00 0.03 0.00 90 996.3
20260510062211 12 86 0.0 0.0 0.00 0.03 0.00 90 996.3
20260510061708 13 86 0.0 0.0 0.00 0.03 0.00 90 996.3
20260510061208 13 86 0.0 0.0 0.00 0.03 0.00 90 996.2
20260510060708 13 86 0.0 0.0 0.00 0.03 0.00 90 996.3
20260510060207 13 86 0.0 0.0 0.00 0.03 0.00 90 996.2
20260510055708 13 86 0.0 0.0 0.00 0.03 0.00 90 996.2
20260510055205 13 86 0.0 0.0 0.00 0.03 0.00 90 996.4
20260510054704 13 86 0.0 0.0 0.00 0.03 0.00 90 996.5
20260510054206 13 86 0.0 0.0 0.00 0.03 0.00 90 996.6
20260510053705 -17 86 0.0 0.0 0.00 0.03 0.00 996.6
20260510053437 13 86 0.0 0.0 0.00 0.03 0.00 89 996.5
20260510052705 13 86 0.0 0.0 0.00 0.03 0.00 89 996.3
20260510052204 13 86 0.0 0.0 0.00 0.03 0.00 89 996.2
20260510051937 13 86 0.0 0.0 0.00 0.03 0.00 89 996.0
20260510051204 13 86 0.0 0.0 0.00 0.03 0.00 89 996.1
20260510050703 13 86 0.0 0.0 0.00 0.03 0.00 89 995.9
20260510050202 14 86 0.0 0.0 0.00 0.05 0.00 88 995.8
20260510045708 14 86 0.0 0.0 0.00 0.05 0.05 88 995.9
20260510045203 14 86 0.0 0.0 0.00 0.23 0.05 88 995.7
20260510044703 14 86 0.0 0.0 0.00 0.23 0.05 88 995.8
20260510044202 14 86 0.0 0.0 0.00 0.23 0.05 88 995.9
20260510043700 14 86 0.0 0.0 0.00 0.23 0.05 87 995.9
20260510043204 15 86 0.0 0.0 0.00 0.23 0.05 87 995.9
20260510042702 15 86 0.0 0.0 0.00 0.23 0.05 87 995.9
20260510042434 15 86 0.0 0.0 0.00 0.23 0.05 87 995.7
20260510041659 15 86 0.0 0.0 0.00 0.23 0.05 87 995.6
20260510041201 15 86 0.0 0.0 0.00 0.23 0.05 86 995.6
20260510040659 15 86 0.0 0.0 0.00 0.23 0.05 86 995.7
20260510040159 15 86 0.0 0.0 0.00 0.23 0.05 86 995.7
20260510035701 15 86 0.0 0.0 0.00 0.23 0.05 86 995.6
20260510035200 15 86 0.0 0.0 0.00 0.23 0.05 86 995.6
20260510034659 16 86 0.0 0.0 0.00 0.23 0.05 85 995.6
20260510034159 16 86 0.0 0.0 0.00 0.23 0.05 85 995.5
20260510033657 16 86 0.0 0.0 0.00 0.23 0.05 85 995.5
20260510033431 16 86 0.0 0.0 0.00 0.23 0.05 85 995.5
20260510032658 16 86 0.0 0.0 0.00 0.23 0.05 85 995.4
20260510032159 16 86 0.0 0.0 0.00 0.23 0.05 85 995.4
20260510031657 16 86 0.0 0.0 0.00 0.23 0.05 85 995.3
20260510031159 16 86 0.0 0.0 0.00 0.23 0.05 85 995.3
20260510030658 16 86 0.0 4.8 0.00 0.23 0.05 85 995.2
20260510030157 16 86 0.0 4.8 0.00 0.23 0.05 85 995.2
20260510025657 16 86 1.6 4.8 0.00 0.23 0.05 85 995.2
20260510025429 16 86 3.2 4.8 0.00 0.23 0.05 84 995.0
20260510024926 16 86 3.2 6.4 0.00 0.23 0.05 84 994.9
20260510024157 17 86 3.2 6.4 0.00 0.23 0.05 84 994.9
20260510023157 17 86 3.2 4.8 0.00 0.23 0.05 83 994.8
20260510022929 17 86 3.2 4.8 0.00 0.23 0.05 83 994.7
20260510022428 17 86 3.2 4.8 0.00 0.23 0.05 83 994.6
20260510021656 17 86 3.2 6.4 0.00 0.23 0.05 82 994.5
20260510021155 17 86 4.8 6.4 0.00 0.23 0.05 82 994.4
20260510020656 18 75 1.6 4.8 0.00 0.23 0.05 81 994.4
20260510020155 18 75 1.6 4.8 0.00 0.23 0.05 81 994.3
20260510015655 18 75 1.6 3.2 0.00 0.23 0.05 81 994.3
20260510015154 18 75 1.6 3.2 0.00 0.23 0.05 80 994.2
20260510014655 19 71 0.0 3.2 0.00 0.23 0.05 79 994.2
20260510014154 19 71 0.0 3.2 0.00 0.23 0.05 79 994.0
20260510013654 19 71 3.2 3.2 0.00 0.23 0.05 79 994.0
20260510013154 19 71 1.6 3.2 0.00 0.23 0.05 78 993.9
20260510012653 20 71 0.0 3.2 0.00 0.23 0.05 77 993.9
20260510012153 20 71 0.0 3.2 0.00 0.23 0.05 77 993.8
20260510011653 20 71 1.6 3.2 0.00 0.23 0.05 76 993.7
20260510011152 20 71 3.2 4.8 0.00 0.23 0.05 75 993.6
20260510010652 20 71 3.2 4.8 0.00 0.23 0.05 75 993.6
20260510010153 21 71 1.6 4.8 0.00 0.23 0.05 72 993.4
20260510005652 21 71 3.2 4.8 0.00 0.23 0.05 72 993.3
20260510005152 21 71 3.2 4.8 0.00 0.23 0.05 71 993.4
20260510004924 22 71 3.2 4.8 0.00 0.23 0.05 69 993.3
20260510004423 22 71 3.2 4.8 0.00 0.23 0.05 67 993.2
20260510003652 23 71 3.2 4.8 0.00 0.23 0.05 66 993.0
20260510003150 23 69 3.2 4.8 0.00 0.23 0.05 63 993.0
20260510002653 24 69 3.2 4.8 0.00 0.23 0.05 59 992.9
20260510002152 25 69 3.2 3.2 0.00 0.23 0.05 56 992.8
20260510001652 25 71 0.0 3.2 0.00 0.23 0.05 54 992.8
20260510001424 26 69 1.6 3.2 0.00 0.23 0.05 50 992.8
20260510000651 26 71 0.0 1.6 0.00 0.23 0.05 47 992.8
20260510000422 26 69 0.0 1.6 0.00 0.23 0.05 45 992.8
20260509235650 26 71 0.0 3.2 0.00 0.23 0.05 44 992.8
20260509235151 27 283 1.6 3.2 0.00 0.23 0.05 42 992.7
20260509234652 27 283 0.0 1.6 0.00 0.23 0.05 41 992.7
20260509234151 27 283 0.0 1.6 0.00 0.23 0.05 41 992.6
20260509233652 27 283 0.0 1.6 0.00 0.23 0.05 40 992.8
20260509233151 27 312 1.6 1.6 0.00 0.23 0.05 39 992.7
20260509232650 27 312 1.6 1.6 0.00 0.23 0.05 39 992.8
20260509232150 28 312 0.0 1.6 0.00 0.23 0.05 41 992.8
20260509231649 28 312 0.0 1.6 0.00 0.23 0.05 41 992.8
20260509231149 28 312 0.0 0.0 0.00 0.23 0.05 41 992.7
20260509230649 28 18 0.0 1.6 0.00 0.23 0.05 39 992.8
20260509230147 28 18 0.0 1.6 0.00 0.23 0.05 39 992.6
20260509225648 28 18 0.0 1.6 0.00 0.23 0.05 37 992.6
20260509225147 28 18 0.0 3.2 0.00 0.23 0.05 37 992.5
20260509224645 28 18 1.6 3.2 0.00 0.23 0.05 37 992.5
20260509224145 -17 18 1.6 1.6 0.00 0.23 0.05 992.5
20260509223647 28 18 1.6 3.2 0.00 0.23 0.05 33 992.4
20260509223415 28 54 1.6 4.8 0.00 0.23 0.05 33 992.4
20260509222644 28 54 3.2 4.8 0.00 0.23 0.05 34 992.4
20260509222144 28 0 0.0 3.2 0.00 0.23 0.05 35 992.4
20260509221644 28 25 1.6 4.8 0.00 0.23 0.05 35 992.4
20260509221143 28 87 3.2 4.8 0.00 0.23 0.05 36 992.5
20260509220642 28 264 1.6 6.4 0.00 0.23 0.05 36 992.3
20260509220411 28 264 1.6 6.4 0.00 0.23 0.05 36 992.4
20260509215910 28 188 3.2 6.4 0.00 0.23 0.05 35 992.4
20260509215140 28 235 3.2 6.4 0.00 0.23 0.05 35 992.4
20260509214640 28 231 1.6 4.8 0.00 0.23 0.05 36 992.4
20260509214140 -17 0.0 0.0 0.00 0.23 0.05 992.4
20260509213639 -17 0.0 0.0 0.00 0.23 0.05 992.3
20260509213139 -17 0.0 0.0 0.00 0.23 0.05 992.4
20260509212135 -17 0.0 0.0 0.00 0.23 0.05 992.4
20260509211635 28 254 4.8 6.4 0.00 0.23 0.05 38 992.5
20260509211404 28 254 4.8 6.4 0.00 0.23 0.05 38 992.5
20260509210633 -17 276 4.8 4.8 0.00 0.23 0.05 992.6
20260509210133 -17 0.0 0.0 0.00 0.23 0.05 992.6
20260509205631 -17 0.0 0.0 0.00 0.23 0.05 992.6
20260509205130 -17 0.0 0.0 0.00 0.23 0.05 992.7
20260509204629 -17 0.0 0.0 0.00 0.23 0.05 992.7
20260509204128 -17 0.0 0.0 0.00 0.23 0.05 992.7
20260509203627 -17 0.0 0.0 0.00 0.23 0.05 992.8
20260509203125 -17 0.0 0.0 0.00 0.23 0.05 992.8
20260509202624 28 281 6.4 16.1 0.00 0.23 0.05 37 992.9
20260509202124 28 281 6.4 16.1 0.00 0.23 0.05 37 992.9
20260509201624 28 293 1.6 8.0 0.00 0.23 0.05 40 993.0
20260509201125 28 245 1.6 8.0 0.00 0.23 0.05 37 993.0
20260509200854 28 292 1.6 4.8 0.00 0.23 0.05 37 993.2
20260509200124 28 224 3.2 11.3 0.00 0.23 0.05 41 993.2
20260509195854 28 31 4.8 11.3 0.00 0.23 0.05 41 993.3
20260509195122 28 264 8.0 9.7 0.00 0.23 0.05 38 993.3
20260509194622 28 251 4.8 4.8 0.00 0.23 0.05 44 993.3
20260509194122 -17 219 6.4 6.4 0.00 0.23 0.05 993.4
20260509193621 -17 219 6.4 6.4 0.00 0.23 0.05 993.2
20260509193121 -17 0.0 0.0 0.00 0.23 0.05 993.4
20260509192619 28 207 6.4 8.0 0.00 0.23 0.05 44 993.5
20260509192121 28 207 6.4 9.7 0.00 0.23 0.05 44 993.5
20260509191618 -17 214 9.7 9.7 0.00 0.23 0.05 993.5
20260509191117 -17 16 3.2 6.4 0.00 0.23 0.05 993.6
20260509190617 27 102 3.2 6.4 0.00 0.23 0.05 47 993.6
20260509190116 27 128 3.2 6.4 0.00 0.23 0.05 47 993.6
20260509185853 27 13 4.8 6.4 0.00 0.23 0.05 48 993.6
20260509185117 27 82 1.6 11.3 0.00 0.23 0.05 47 993.6
20260509184617 27 18 8.0 11.3 0.00 0.23 0.05 50 993.6
20260509184117 27 351 3.2 8.0 0.00 0.23 0.05 47 993.6
20260509183615 27 224 3.2 11.3 0.00 0.23 0.05 47 993.6
20260509183116 27 248 8.0 11.3 0.00 0.23 0.05 55 993.6
20260509182615 -17 0.0 0.0 0.00 0.23 0.05 993.6
20260509182114 26 238 1.6 11.3 0.00 0.23 0.05 55 993.7
20260509181613 26 238 1.6 11.3 0.00 0.23 0.05 55 993.6
20260509181117 26 276 3.2 6.4 0.00 0.23 0.05 55 993.8
20260509180613 26 221 3.2 4.8 0.00 0.23 0.05 55 993.7
20260509180344 26 182 3.2 4.8 0.00 0.23 0.05 62 993.8
20260509175613 -17 180 3.2 4.8 0.00 0.23 0.05 993.9
20260509175112 -17 180 3.2 4.8 0.00 0.23 0.05 993.9
20260509174612 25 197 3.2 4.8 0.00 0.23 0.05 63 993.9
20260509174113 25 197 3.2 4.8 0.00 0.23 0.05 63 993.9
20260509173842 24 188 3.2 8.0 0.00 0.23 0.05 66 994.0
20260509173110 24 188 3.2 8.0 0.00 0.23 0.05 66 994.1
20260509172610 24 199 4.8 8.0 0.00 0.23 0.05 68 994.1
20260509172109 -17 78 3.2 3.2 0.00 0.23 0.05 994.1
20260509171609 -17 78 3.2 3.2 0.00 0.23 0.05 994.1
20260509171109 23 237 0.0 0.0 0.00 0.23 0.05 72 994.1
20260509170607 23 237 0.0 0.0 0.00 0.23 0.05 72 994.2
20260509170108 23 206 3.2 4.8 0.00 0.23 0.05 72 994.2
20260509165606 23 206 3.2 9.7 0.00 0.23 0.05 72 994.2
20260509165106 23 248 6.4 9.7 0.00 0.23 0.05 74 994.2